Year,Month,Day,Hour,Minute,Value (Times are PST for temperature in C)
2010,09,21,00,00,13.20
2010,09,21,00,01,13.20
2010,09,21,00,02,13.20
2010,09,21,00,03,13.20
2010,09,21,00,04,13.20
2010,09,21,00,05,13.20
2010,09,21,00,06,13.20
2010,09,21,00,07,13.20
2010,09,21,00,08,13.10
2010,09,21,00,09,13.10
2010,09,21,00,10,13.10
2010,09,21,00,11,13.10
2010,09,21,00,12,13.10
2010,09,21,00,13,13.00
2010,09,21,00,14,13.00
2010,09,21,00,15,12.90
2010,09,21,00,16,12.90
2010,09,21,00,17,12.90
2010,09,21,00,18,12.80
2010,09,21,00,19,12.80
2010,09,21,00,20,12.80
2010,09,21,00,21,12.70
2010,09,21,00,22,12.70
2010,09,21,00,23,12.60
2010,09,21,00,24,12.60
2010,09,21,00,25,12.50
2010,09,21,00,26,12.40
2010,09,21,00,27,12.40
2010,09,21,00,28,12.30
2010,09,21,00,29,12.30
2010,09,21,00,30,12.30
2010,09,21,00,31,12.20
2010,09,21,00,32,12.20
2010,09,21,00,33,12.10
2010,09,21,00,34,12.10
2010,09,21,00,35,12.00
2010,09,21,00,36,12.00
2010,09,21,00,37,11.90
2010,09,21,00,38,11.90
2010,09,21,00,39,11.90
2010,09,21,00,40,11.90
2010,09,21,00,41,11.80
2010,09,21,00,42,11.80
2010,09,21,00,43,11.80
2010,09,21,00,44,11.80
2010,09,21,00,45,11.70
2010,09,21,00,46,11.70
2010,09,21,00,47,11.60
2010,09,21,00,48,11.60
2010,09,21,00,49,11.50
2010,09,21,00,50,11.40
2010,09,21,00,51,11.30
2010,09,21,00,52,11.20
2010,09,21,00,53,11.10
2010,09,21,00,54,11.00
2010,09,21,00,55,11.00
2010,09,21,00,56,10.90
2010,09,21,00,57,10.80
2010,09,21,00,58,10.80
2010,09,21,00,59,10.80
2010,09,21,01,00,10.80
2010,09,21,01,01,10.70
2010,09,21,01,02,10.70
2010,09,21,01,03,10.70
2010,09,21,01,04,10.70
2010,09,21,01,05,10.70
2010,09,21,01,06,10.60
2010,09,21,01,07,10.60
2010,09,21,01,08,10.60
2010,09,21,01,09,10.60
2010,09,21,01,10,10.60
2010,09,21,01,11,10.60
2010,09,21,01,12,10.60
2010,09,21,01,13,10.60
2010,09,21,01,14,10.50
2010,09,21,01,15,10.50
2010,09,21,01,16,10.50
2010,09,21,01,17,10.40
2010,09,21,01,18,10.40
2010,09,21,01,19,10.40
2010,09,21,01,20,10.40
2010,09,21,01,21,10.30
2010,09,21,01,22,10.30
2010,09,21,01,23,10.30
2010,09,21,01,24,10.30
2010,09,21,01,25,10.30
2010,09,21,01,26,10.30
2010,09,21,01,27,10.20
2010,09,21,01,28,10.20
2010,09,21,01,29,10.20
2010,09,21,01,30,10.20
2010,09,21,01,31,10.10
2010,09,21,01,32,10.10
2010,09,21,01,33,10.10
2010,09,21,01,34,10.10
2010,09,21,01,35,10.00
2010,09,21,01,36,10.00
2010,09,21,01,37,10.00
2010,09,21,01,38,10.00
2010,09,21,01,39,9.90
2010,09,21,01,40,9.90
2010,09,21,01,41,9.90
2010,09,21,01,42,9.90
2010,09,21,01,43,9.90
2010,09,21,01,44,9.90
2010,09,21,01,45,9.90
2010,09,21,01,46,9.80
2010,09,21,01,47,9.80
2010,09,21,01,48,9.80
2010,09,21,01,49,9.80
2010,09,21,01,50,9.80
2010,09,21,01,51,9.80
2010,09,21,01,52,9.70
2010,09,21,01,53,9.70
2010,09,21,01,54,9.70
2010,09,21,01,55,9.70
2010,09,21,01,56,9.70
2010,09,21,01,57,9.70
2010,09,21,01,58,9.70
2010,09,21,01,59,9.70
2010,09,21,02,00,9.70
2010,09,21,02,01,9.70
2010,09,21,02,02,9.70
2010,09,21,02,03,9.70
2010,09,21,02,04,9.70
2010,09,21,02,05,9.70
2010,09,21,02,06,9.70
2010,09,21,02,07,9.70
2010,09,21,02,08,9.70
2010,09,21,02,09,9.70
2010,09,21,02,10,9.70
2010,09,21,02,11,9.70
2010,09,21,02,12,9.60
2010,09,21,02,13,9.60
2010,09,21,02,14,9.60
2010,09,21,02,15,9.60
2010,09,21,02,16,9.60
2010,09,21,02,17,9.60
2010,09,21,02,18,9.60
2010,09,21,02,19,9.60
2010,09,21,02,20,9.60
2010,09,21,02,21,9.60
2010,09,21,02,22,9.60
2010,09,21,02,23,9.60
2010,09,21,02,24,9.60
2010,09,21,02,25,9.60
2010,09,21,02,26,9.60
2010,09,21,02,27,9.60
2010,09,21,02,28,9.60
2010,09,21,02,29,9.60
2010,09,21,02,30,9.60
2010,09,21,02,31,9.50
2010,09,21,02,32,9.50
2010,09,21,02,33,9.50
2010,09,21,02,34,9.40
2010,09,21,02,35,9.40
2010,09,21,02,36,9.40
2010,09,21,02,37,9.40
2010,09,21,02,38,9.40
2010,09,21,02,39,9.40
2010,09,21,02,40,9.40
2010,09,21,02,41,9.40
2010,09,21,02,42,9.40
2010,09,21,02,43,9.30
2010,09,21,02,44,9.30
2010,09,21,02,45,9.30
2010,09,21,02,46,9.20
2010,09,21,02,47,9.10
2010,09,21,02,48,9.00
2010,09,21,02,49,8.90
2010,09,21,02,50,8.90
2010,09,21,02,51,8.80
2010,09,21,02,52,8.80
2010,09,21,02,53,8.70
2010,09,21,02,54,8.70
2010,09,21,02,55,8.70
2010,09,21,02,56,8.60
2010,09,21,02,57,8.60
2010,09,21,02,58,8.60
2010,09,21,02,59,8.60
2010,09,21,03,00,8.60
2010,09,21,03,01,8.60
2010,09,21,03,02,8.60
2010,09,21,03,03,8.60
2010,09,21,03,04,8.60
2010,09,21,03,05,8.60
2010,09,21,03,06,8.50
2010,09,21,03,07,8.50
2010,09,21,03,08,8.50
2010,09,21,03,09,8.50
2010,09,21,03,10,8.40
2010,09,21,03,11,8.40
2010,09,21,03,12,8.40
2010,09,21,03,13,8.40
2010,09,21,03,14,8.40
2010,09,21,03,15,8.40
2010,09,21,03,16,8.40
2010,09,21,03,17,8.40
2010,09,21,03,18,8.40
2010,09,21,03,19,8.40
2010,09,21,03,20,8.40
2010,09,21,03,21,8.40
2010,09,21,03,22,8.40
2010,09,21,03,23,8.40
2010,09,21,03,24,8.50
2010,09,21,03,25,8.50
2010,09,21,03,26,8.60
2010,09,21,03,27,8.60
2010,09,21,03,28,8.60
2010,09,21,03,29,8.70
2010,09,21,03,30,8.70
2010,09,21,03,31,8.70
2010,09,21,03,32,8.70
2010,09,21,03,33,8.70
2010,09,21,03,34,8.70
2010,09,21,03,35,8.60
2010,09,21,03,36,8.60
2010,09,21,03,37,8.60
2010,09,21,03,38,8.60
2010,09,21,03,39,8.60
2010,09,21,03,40,8.50
2010,09,21,03,41,8.50
2010,09,21,03,42,8.50
2010,09,21,03,43,8.50
2010,09,21,03,44,8.50
2010,09,21,03,45,8.40
2010,09,21,03,46,8.40
2010,09,21,03,47,8.40
2010,09,21,03,48,8.40
2010,09,21,03,49,8.40
2010,09,21,03,50,8.40
2010,09,21,03,51,8.40
2010,09,21,03,52,8.40
2010,09,21,03,53,8.40
2010,09,21,03,54,8.40
2010,09,21,03,55,8.40
2010,09,21,03,56,8.40
2010,09,21,03,57,8.40
2010,09,21,03,58,8.40
2010,09,21,03,59,8.50
2010,09,21,04,00,8.50
2010,09,21,04,01,8.50
2010,09,21,04,02,8.50
2010,09,21,04,03,8.50
2010,09,21,04,04,8.50
2010,09,21,04,05,8.50
2010,09,21,04,06,8.60
2010,09,21,04,07,8.60
2010,09,21,04,08,8.60
2010,09,21,04,09,8.60
2010,09,21,04,10,8.60
2010,09,21,04,11,8.60
2010,09,21,04,12,8.60
2010,09,21,04,13,8.60
2010,09,21,04,14,8.60
2010,09,21,04,15,8.60
2010,09,21,04,16,8.60
2010,09,21,04,17,8.70
2010,09,21,04,18,8.70
2010,09,21,04,19,8.70
2010,09,21,04,20,8.70
2010,09,21,04,21,8.70
2010,09,21,04,22,8.70
2010,09,21,04,23,8.70
2010,09,21,04,24,8.70
2010,09,21,04,25,8.70
2010,09,21,04,26,8.80
2010,09,21,04,27,8.80
2010,09,21,04,28,8.80
2010,09,21,04,29,8.80
2010,09,21,04,30,8.80
2010,09,21,04,31,8.80
2010,09,21,04,32,8.80
2010,09,21,04,33,8.80
2010,09,21,04,34,8.90
2010,09,21,04,35,8.90
2010,09,21,04,36,8.90
2010,09,21,04,37,8.80
2010,09,21,04,38,8.80
2010,09,21,04,39,8.80
2010,09,21,04,40,8.80
2010,09,21,04,41,8.80
2010,09,21,04,42,8.80
2010,09,21,04,43,8.80
2010,09,21,04,44,8.80
2010,09,21,04,45,8.70
2010,09,21,04,46,8.70
2010,09,21,04,47,8.70
2010,09,21,04,48,8.70
2010,09,21,04,49,8.60
2010,09,21,04,50,8.60
2010,09,21,04,51,8.60
2010,09,21,04,52,8.60
2010,09,21,04,53,8.50
2010,09,21,04,54,8.50
2010,09,21,04,55,8.50
2010,09,21,04,56,8.40
2010,09,21,04,57,8.40
2010,09,21,04,58,8.40
2010,09,21,04,59,8.40
2010,09,21,05,00,8.30
2010,09,21,05,01,8.30
2010,09,21,05,02,8.30
2010,09,21,05,03,8.30
2010,09,21,05,04,8.30
2010,09,21,05,05,8.20
2010,09,21,05,06,8.20
2010,09,21,05,07,8.20
2010,09,21,05,08,8.20
2010,09,21,05,09,8.20
2010,09,21,05,10,8.20
2010,09,21,05,11,8.20
2010,09,21,05,12,8.20
2010,09,21,05,13,8.20
2010,09,21,05,14,8.20
2010,09,21,05,15,8.20
2010,09,21,05,16,8.20
2010,09,21,05,17,8.20
2010,09,21,05,18,8.20
2010,09,21,05,19,8.20
2010,09,21,05,20,8.20
2010,09,21,05,21,8.20
2010,09,21,05,22,8.20
2010,09,21,05,23,8.20
2010,09,21,05,24,8.10
2010,09,21,05,25,8.10
2010,09,21,05,26,8.00
2010,09,21,05,27,8.00
2010,09,21,05,28,7.90
2010,09,21,05,29,7.90
2010,09,21,05,30,7.80
2010,09,21,05,31,7.80
2010,09,21,05,32,7.80
2010,09,21,05,33,7.80
2010,09,21,05,34,7.70
2010,09,21,05,35,7.70
2010,09,21,05,36,7.70
2010,09,21,05,37,7.70
2010,09,21,05,38,7.70
2010,09,21,05,39,7.70
2010,09,21,05,40,7.60
2010,09,21,05,41,7.60
2010,09,21,05,42,7.60
2010,09,21,05,43,7.60
2010,09,21,05,44,7.60
2010,09,21,05,45,7.60
2010,09,21,05,46,7.60
2010,09,21,05,47,7.60
2010,09,21,05,48,7.60
2010,09,21,05,49,7.60
2010,09,21,05,50,7.60
2010,09,21,05,51,7.60
2010,09,21,05,52,7.60
2010,09,21,05,53,7.60
2010,09,21,05,54,7.60
2010,09,21,05,55,7.60
2010,09,21,05,56,7.60
2010,09,21,05,57,7.60
2010,09,21,05,58,7.60
2010,09,21,05,59,7.50
2010,09,21,06,00,7.50
2010,09,21,06,01,7.50
2010,09,21,06,02,7.50
2010,09,21,06,03,7.50
2010,09,21,06,04,7.50
2010,09,21,06,05,7.40
2010,09,21,06,06,7.40
2010,09,21,06,07,7.40
2010,09,21,06,08,7.40
2010,09,21,06,09,7.40
2010,09,21,06,10,7.40
2010,09,21,06,11,7.40
2010,09,21,06,12,7.40
2010,09,21,06,13,7.40
2010,09,21,06,14,7.50
2010,09,21,06,15,7.50
2010,09,21,06,16,7.50
2010,09,21,06,17,7.60
2010,09,21,06,18,7.60
2010,09,21,06,19,7.70
2010,09,21,06,20,7.70
2010,09,21,06,21,7.70
2010,09,21,06,22,7.70
2010,09,21,06,23,7.70
2010,09,21,06,24,7.70
2010,09,21,06,25,7.70
2010,09,21,06,26,7.70
2010,09,21,06,27,7.60
2010,09,21,06,28,7.60
2010,09,21,06,29,7.60
2010,09,21,06,30,7.60
2010,09,21,06,31,7.60
2010,09,21,06,32,7.60
2010,09,21,06,33,7.50
2010,09,21,06,34,7.50
2010,09,21,06,35,7.50
2010,09,21,06,36,7.40
2010,09,21,06,37,7.40
2010,09,21,06,38,7.40
2010,09,21,06,39,7.50
2010,09,21,06,40,7.50
2010,09,21,06,41,7.40
2010,09,21,06,42,7.40
2010,09,21,06,43,7.40
2010,09,21,06,44,7.40
2010,09,21,06,45,7.40
2010,09,21,06,46,7.40
2010,09,21,06,47,7.40
2010,09,21,06,48,7.40
2010,09,21,06,49,7.40
2010,09,21,06,50,7.30
2010,09,21,06,51,7.30
2010,09,21,06,52,7.40
2010,09,21,06,53,7.40
2010,09,21,06,54,7.40
2010,09,21,06,55,7.30
2010,09,21,06,56,7.30
2010,09,21,06,57,7.30
2010,09,21,06,58,7.30
2010,09,21,06,59,7.30
2010,09,21,07,00,7.20
2010,09,21,07,01,7.20
2010,09,21,07,02,7.20
2010,09,21,07,03,7.20
2010,09,21,07,04,7.20
2010,09,21,07,05,7.20
2010,09,21,07,06,7.20
2010,09,21,07,07,7.20
2010,09,21,07,08,7.20
2010,09,21,07,09,7.20
2010,09,21,07,10,7.20
2010,09,21,07,11,7.30
2010,09,21,07,12,7.40
2010,09,21,07,13,7.40
2010,09,21,07,14,7.50
2010,09,21,07,15,7.60
2010,09,21,07,16,7.60
2010,09,21,07,17,7.60
2010,09,21,07,18,7.60
2010,09,21,07,19,7.60
2010,09,21,07,20,7.60
2010,09,21,07,21,7.70
2010,09,21,07,22,7.70
2010,09,21,07,23,7.70
2010,09,21,07,24,7.70
2010,09,21,07,25,7.70
2010,09,21,07,26,7.70
2010,09,21,07,27,7.70
2010,09,21,07,28,7.70
2010,09,21,07,29,7.70
2010,09,21,07,30,7.70
2010,09,21,07,31,7.80
2010,09,21,07,32,7.80
2010,09,21,07,33,7.80
2010,09,21,07,34,7.80
2010,09,21,07,35,7.80
2010,09,21,07,36,7.90
2010,09,21,07,37,7.90
2010,09,21,07,38,7.90
2010,09,21,07,39,8.00
2010,09,21,07,40,8.00
2010,09,21,07,41,8.10
2010,09,21,07,42,8.10
2010,09,21,07,43,8.10
2010,09,21,07,44,8.20
2010,09,21,07,45,8.20
2010,09,21,07,46,8.20
2010,09,21,07,47,8.20
2010,09,21,07,48,8.30
2010,09,21,07,49,8.30
2010,09,21,07,50,8.30
2010,09,21,07,51,8.30
2010,09,21,07,52,8.40
2010,09,21,07,53,8.40
2010,09,21,07,54,8.40
2010,09,21,07,55,8.50
2010,09,21,07,56,8.50
2010,09,21,07,57,8.60
2010,09,21,07,58,8.60
2010,09,21,07,59,8.60
2010,09,21,08,00,8.60
2010,09,21,08,01,8.70
2010,09,21,08,02,8.70
2010,09,21,08,03,8.70
2010,09,21,08,04,8.80
2010,09,21,08,05,8.80
2010,09,21,08,06,8.80
2010,09,21,08,07,8.80
2010,09,21,08,08,8.90
2010,09,21,08,09,8.90
2010,09,21,08,10,8.90
2010,09,21,08,11,9.00
2010,09,21,08,12,9.00
2010,09,21,08,13,9.00
2010,09,21,08,14,9.10
2010,09,21,08,15,9.10
2010,09,21,08,16,9.10
2010,09,21,08,17,9.10
2010,09,21,08,18,9.20
2010,09,21,08,19,9.20
2010,09,21,08,20,9.20
2010,09,21,08,21,9.20
2010,09,21,08,22,9.20
2010,09,21,08,23,9.30
2010,09,21,08,24,9.30
2010,09,21,08,25,9.20
2010,09,21,08,26,9.20
2010,09,21,08,27,9.20
2010,09,21,08,28,9.20
2010,09,21,08,29,9.10
2010,09,21,08,30,9.10
2010,09,21,08,31,9.10
2010,09,21,08,32,9.10
2010,09,21,08,33,9.10
2010,09,21,08,34,9.20
2010,09,21,08,35,9.20
2010,09,21,08,36,9.20
2010,09,21,08,37,9.20
2010,09,21,08,38,9.20
2010,09,21,08,39,9.20
2010,09,21,08,40,9.20
2010,09,21,08,41,9.30
2010,09,21,08,42,9.30
2010,09,21,08,43,9.30
2010,09,21,08,44,9.30
2010,09,21,08,45,9.40
2010,09,21,08,46,9.40
2010,09,21,08,47,9.50
2010,09,21,08,48,9.60
2010,09,21,08,49,9.70
2010,09,21,08,50,9.80
2010,09,21,08,51,10.00
2010,09,21,08,52,10.20
2010,09,21,08,53,10.30
2010,09,21,08,54,10.40
2010,09,21,08,55,10.40
2010,09,21,08,56,10.50
2010,09,21,08,57,10.60
2010,09,21,08,58,10.70
2010,09,21,08,59,10.80
2010,09,21,09,00,10.80
2010,09,21,09,01,10.90
2010,09,21,09,02,11.10
2010,09,21,09,03,11.10
2010,09,21,09,04,11.20
2010,09,21,09,05,11.20
2010,09,21,09,06,11.30
2010,09,21,09,07,11.30
2010,09,21,09,08,11.40
2010,09,21,09,09,11.50
2010,09,21,09,10,11.60
2010,09,21,09,11,11.70
2010,09,21,09,12,11.70
2010,09,21,09,13,11.80
2010,09,21,09,14,11.80
2010,09,21,09,15,11.90
2010,09,21,09,16,12.00
2010,09,21,09,17,12.00
2010,09,21,09,18,12.00
2010,09,21,09,19,11.90
2010,09,21,09,20,11.90
2010,09,21,09,21,11.90
2010,09,21,09,22,11.90
2010,09,21,09,23,11.80
2010,09,21,09,24,11.90
2010,09,21,09,25,11.90
2010,09,21,09,26,11.90
2010,09,21,09,27,12.00
2010,09,21,09,28,12.10
2010,09,21,09,29,12.20
2010,09,21,09,30,12.30
2010,09,21,09,31,12.40
2010,09,21,09,32,12.60
2010,09,21,09,33,12.70
2010,09,21,09,34,12.80
2010,09,21,09,35,12.80
2010,09,21,09,36,12.90
2010,09,21,09,37,12.90
2010,09,21,09,38,13.00
2010,09,21,09,39,13.10
2010,09,21,09,40,13.20
2010,09,21,09,41,13.20
2010,09,21,09,42,13.20
2010,09,21,09,43,13.30
2010,09,21,09,44,13.30
2010,09,21,09,45,13.40
2010,09,21,09,46,13.40
2010,09,21,09,47,13.40
2010,09,21,09,48,13.50
2010,09,21,09,49,13.50
2010,09,21,09,50,13.60
2010,09,21,09,51,13.60
2010,09,21,09,52,13.60
2010,09,21,09,53,13.70
2010,09,21,09,54,13.80
2010,09,21,09,55,13.80
2010,09,21,09,56,13.80
2010,09,21,09,57,13.90
2010,09,21,09,58,13.90
2010,09,21,09,59,14.00
2010,09,21,10,00,14.00
2010,09,21,10,01,14.00
2010,09,21,10,02,14.00
2010,09,21,10,03,14.10
2010,09,21,10,04,14.20
2010,09,21,10,05,14.20
2010,09,21,10,06,14.20
2010,09,21,10,07,14.10
2010,09,21,10,08,14.10
2010,09,21,10,09,14.10
2010,09,21,10,10,14.00
2010,09,21,10,11,13.90
2010,09,21,10,12,13.90
2010,09,21,10,13,13.80
2010,09,21,10,14,13.80
2010,09,21,10,15,13.80
2010,09,21,10,16,13.80
2010,09,21,10,17,13.80
2010,09,21,10,18,13.80
2010,09,21,10,19,13.80
2010,09,21,10,20,13.80
2010,09,21,10,21,13.90
2010,09,21,10,22,13.90
2010,09,21,10,23,14.00
2010,09,21,10,24,14.00
2010,09,21,10,25,14.00
2010,09,21,10,26,14.00
2010,09,21,10,27,14.00
2010,09,21,10,28,14.00
2010,09,21,10,29,13.90
2010,09,21,10,30,13.90
2010,09,21,10,31,13.90
2010,09,21,10,32,13.90
2010,09,21,10,33,13.80
2010,09,21,10,34,13.70
2010,09,21,10,35,13.70
2010,09,21,10,36,13.70
2010,09,21,10,37,13.70
2010,09,21,10,38,13.70
2010,09,21,10,39,13.70
2010,09,21,10,40,13.70
2010,09,21,10,41,13.70
2010,09,21,10,42,13.70
2010,09,21,10,43,13.70
2010,09,21,10,44,13.70
2010,09,21,10,45,13.70
2010,09,21,10,46,13.70
2010,09,21,10,47,13.70
2010,09,21,10,48,13.70
2010,09,21,10,49,13.70
2010,09,21,10,50,13.70
2010,09,21,10,51,13.70
2010,09,21,10,52,13.70
2010,09,21,10,53,13.70
2010,09,21,10,54,13.70
2010,09,21,10,55,13.70
2010,09,21,10,56,13.70
2010,09,21,10,57,13.70
2010,09,21,10,58,13.70
2010,09,21,10,59,13.80
2010,09,21,11,00,13.80
2010,09,21,11,01,13.90
2010,09,21,11,02,13.90
2010,09,21,11,03,13.90
2010,09,21,11,04,14.00
2010,09,21,11,05,14.10
2010,09,21,11,06,14.10
2010,09,21,11,07,14.10
2010,09,21,11,08,14.10
2010,09,21,11,09,14.10
2010,09,21,11,10,14.00
2010,09,21,11,11,13.90
2010,09,21,11,12,13.90
2010,09,21,11,13,13.90
2010,09,21,11,14,13.90
2010,09,21,11,15,13.90
2010,09,21,11,16,13.90
2010,09,21,11,17,13.90
2010,09,21,11,18,13.90
2010,09,21,11,19,14.00
2010,09,21,11,20,14.10
2010,09,21,11,21,14.10
2010,09,21,11,22,14.10
2010,09,21,11,23,14.20
2010,09,21,11,24,14.20
2010,09,21,11,25,14.20
2010,09,21,11,26,14.30
2010,09,21,11,27,14.30
2010,09,21,11,28,14.30
2010,09,21,11,29,14.30
2010,09,21,11,30,14.20
2010,09,21,11,31,14.20
2010,09,21,11,32,14.30
2010,09,21,11,33,14.30
2010,09,21,11,34,14.40
2010,09,21,11,35,14.50
2010,09,21,11,36,14.60
2010,09,21,11,37,14.70
2010,09,21,11,38,14.80
2010,09,21,11,39,14.80
2010,09,21,11,40,14.90
2010,09,21,11,41,14.90
2010,09,21,11,42,14.90
2010,09,21,11,43,15.00
2010,09,21,11,44,15.00
2010,09,21,11,45,15.00
2010,09,21,11,46,15.10
2010,09,21,11,47,15.20
2010,09,21,11,48,15.20
2010,09,21,11,49,15.20
2010,09,21,11,50,15.20
2010,09,21,11,51,15.10
2010,09,21,11,52,15.00
2010,09,21,11,53,15.00
2010,09,21,11,54,15.00
2010,09,21,11,55,15.00
2010,09,21,11,56,15.00
2010,09,21,11,57,15.00
2010,09,21,11,58,15.00
2010,09,21,11,59,15.00
2010,09,21,12,00,15.00
2010,09,21,12,01,15.00
2010,09,21,12,02,15.00
2010,09,21,12,03,15.00
2010,09,21,12,04,15.00
2010,09,21,12,05,15.00
2010,09,21,12,06,15.00
2010,09,21,12,07,15.00
2010,09,21,12,08,15.00
2010,09,21,12,09,15.00
2010,09,21,12,10,15.00
2010,09,21,12,11,15.00
2010,09,21,12,12,15.00
2010,09,21,12,13,15.00
2010,09,21,12,14,15.00
2010,09,21,12,15,15.00
2010,09,21,12,16,15.00
2010,09,21,12,17,14.90
2010,09,21,12,18,14.90
2010,09,21,12,19,14.80
2010,09,21,12,20,14.70
2010,09,21,12,21,14.70
2010,09,21,12,22,14.60
2010,09,21,12,23,14.60
2010,09,21,12,24,14.60
2010,09,21,12,25,14.60
2010,09,21,12,26,14.60
2010,09,21,12,27,14.60
2010,09,21,12,28,14.60
2010,09,21,12,29,14.50
2010,09,21,12,30,14.50
2010,09,21,12,31,14.50
2010,09,21,12,32,14.50
2010,09,21,12,33,14.50
2010,09,21,12,34,14.60
2010,09,21,12,35,14.60
2010,09,21,12,36,14.70
2010,09,21,12,37,14.80
2010,09,21,12,38,14.80
2010,09,21,12,39,14.80
2010,09,21,12,40,15.00
2010,09,21,12,41,15.00
2010,09,21,12,42,15.00
2010,09,21,12,43,15.00
2010,09,21,12,44,15.00
2010,09,21,12,45,15.00
2010,09,21,12,46,15.10
2010,09,21,12,47,15.20
2010,09,21,12,48,15.20
2010,09,21,12,49,15.20
2010,09,21,12,50,15.30
2010,09,21,12,51,15.30
2010,09,21,12,52,15.20
2010,09,21,12,53,15.20
2010,09,21,12,54,15.20
2010,09,21,12,55,15.20
2010,09,21,12,56,15.20
2010,09,21,12,57,15.20
2010,09,21,12,58,15.10
2010,09,21,12,59,15.20
2010,09,21,13,00,15.30
2010,09,21,13,01,15.30
2010,09,21,13,02,15.40
2010,09,21,13,03,15.40
2010,09,21,13,04,15.50
2010,09,21,13,05,15.50
2010,09,21,13,06,15.50
2010,09,21,13,07,15.50
2010,09,21,13,08,15.60
2010,09,21,13,09,15.60
2010,09,21,13,10,15.60
2010,09,21,13,11,15.60
2010,09,21,13,12,15.60
2010,09,21,13,13,15.60
2010,09,21,13,14,15.70
2010,09,21,13,15,15.70
2010,09,21,13,16,15.70
2010,09,21,13,17,15.70
2010,09,21,13,18,15.80
2010,09,21,13,19,15.80
2010,09,21,13,20,15.80
2010,09,21,13,21,15.80
2010,09,21,13,22,15.80
2010,09,21,13,23,15.80
2010,09,21,13,24,15.80
2010,09,21,13,25,15.80
2010,09,21,13,26,15.80
2010,09,21,13,27,15.80
2010,09,21,13,28,15.80
2010,09,21,13,29,15.70
2010,09,21,13,30,15.80
2010,09,21,13,31,15.80
2010,09,21,13,32,15.80
2010,09,21,13,33,15.80
2010,09,21,13,34,15.80
2010,09,21,13,35,15.80
2010,09,21,13,36,15.80
2010,09,21,13,37,15.80
2010,09,21,13,38,15.80
2010,09,21,13,39,15.80
2010,09,21,13,40,15.80
2010,09,21,13,41,15.90
2010,09,21,13,42,15.90
2010,09,21,13,43,15.90
2010,09,21,13,44,15.90
2010,09,21,13,45,15.90
2010,09,21,13,46,15.90
2010,09,21,13,47,15.90
2010,09,21,13,48,15.90
2010,09,21,13,49,15.90
2010,09,21,13,50,16.00
2010,09,21,13,51,16.00
2010,09,21,13,52,16.10
2010,09,21,13,53,16.10
2010,09,21,13,54,16.00
2010,09,21,13,55,16.00
2010,09,21,13,56,16.10
2010,09,21,13,57,16.00
2010,09,21,13,58,16.00
2010,09,21,13,59,16.00
2010,09,21,14,00,15.90
2010,09,21,14,01,16.00
2010,09,21,14,02,16.00
2010,09,21,14,03,16.10
2010,09,21,14,04,16.10
2010,09,21,14,05,16.20
2010,09,21,14,06,16.20
2010,09,21,14,07,16.30
2010,09,21,14,08,16.30
2010,09,21,14,09,16.40
2010,09,21,14,10,16.40
2010,09,21,14,11,16.40
2010,09,21,14,12,16.30
2010,09,21,14,13,16.30
2010,09,21,14,14,16.30
2010,09,21,14,15,16.30
2010,09,21,14,16,16.20
2010,09,21,14,17,16.20
2010,09,21,14,18,16.30
2010,09,21,14,19,16.30
2010,09,21,14,20,16.30
2010,09,21,14,21,16.30
2010,09,21,14,22,16.20
2010,09,21,14,23,16.20
2010,09,21,14,24,16.30
2010,09,21,14,25,16.30
2010,09,21,14,26,16.30
2010,09,21,14,27,16.40
2010,09,21,14,28,16.40
2010,09,21,14,29,16.40
2010,09,21,14,30,16.30
2010,09,21,14,31,16.30
2010,09,21,14,32,16.40
2010,09,21,14,33,16.40
2010,09,21,14,34,16.40
2010,09,21,14,35,16.40
2010,09,21,14,36,16.40
2010,09,21,14,37,16.40
2010,09,21,14,38,16.40
2010,09,21,14,39,16.40
2010,09,21,14,40,16.40
2010,09,21,14,41,16.30
2010,09,21,14,42,16.30
2010,09,21,14,43,16.30
2010,09,21,14,44,16.40
2010,09,21,14,45,16.30
2010,09,21,14,46,16.30
2010,09,21,14,47,16.30
2010,09,21,14,48,16.30
2010,09,21,14,49,16.30
2010,09,21,14,50,16.30
2010,09,21,14,51,16.30
2010,09,21,14,52,16.30
2010,09,21,14,53,16.30
2010,09,21,14,54,16.30
2010,09,21,14,55,16.30
2010,09,21,14,56,16.30
2010,09,21,14,57,16.30
2010,09,21,14,58,16.30
2010,09,21,14,59,16.40
2010,09,21,15,00,16.40
2010,09,21,15,01,16.40
2010,09,21,15,02,16.40
2010,09,21,15,03,16.30
2010,09,21,15,04,16.30
2010,09,21,15,05,16.30
2010,09,21,15,06,16.30
2010,09,21,15,07,16.30
2010,09,21,15,08,16.30
2010,09,21,15,09,16.40
2010,09,21,15,10,16.50
2010,09,21,15,11,16.60
2010,09,21,15,12,16.70
2010,09,21,15,13,16.70
2010,09,21,15,14,16.60
2010,09,21,15,15,16.60
2010,09,21,15,16,16.50
2010,09,21,15,17,16.40
2010,09,21,15,18,16.40
2010,09,21,15,19,16.40
2010,09,21,15,20,16.40
2010,09,21,15,21,16.40
2010,09,21,15,22,16.50
2010,09,21,15,23,16.50
2010,09,21,15,24,16.50
2010,09,21,15,25,16.50
2010,09,21,15,26,16.50
2010,09,21,15,27,16.50
2010,09,21,15,28,16.50
2010,09,21,15,29,16.50
2010,09,21,15,30,16.50
2010,09,21,15,31,16.50
2010,09,21,15,32,16.60
2010,09,21,15,33,16.60
2010,09,21,15,34,16.50
2010,09,21,15,35,16.50
2010,09,21,15,36,16.50
2010,09,21,15,37,16.50
2010,09,21,15,38,16.50
2010,09,21,15,39,16.50
2010,09,21,15,40,16.50
2010,09,21,15,41,16.50
2010,09,21,15,42,16.50
2010,09,21,15,43,16.50
2010,09,21,15,44,16.50
2010,09,21,15,45,16.50
2010,09,21,15,46,16.60
2010,09,21,15,47,16.60
2010,09,21,15,48,16.60
2010,09,21,15,49,16.60
2010,09,21,15,50,16.70
2010,09,21,15,51,16.70
2010,09,21,15,52,16.60
2010,09,21,15,53,16.60
2010,09,21,15,54,16.60
2010,09,21,15,55,16.60
2010,09,21,15,56,16.60
2010,09,21,15,57,16.70
2010,09,21,15,58,16.70
2010,09,21,15,59,16.70
2010,09,21,16,00,16.70
2010,09,21,16,01,16.70
2010,09,21,16,02,16.70
2010,09,21,16,03,16.70
2010,09,21,16,04,16.70
2010,09,21,16,05,16.70
2010,09,21,16,06,16.70
2010,09,21,16,07,16.80
2010,09,21,16,08,16.80
2010,09,21,16,09,16.80
2010,09,21,16,10,16.80
2010,09,21,16,11,16.80
2010,09,21,16,12,16.80
2010,09,21,16,13,16.80
2010,09,21,16,14,16.80
2010,09,21,16,15,16.80
2010,09,21,16,16,16.70
2010,09,21,16,17,16.70
2010,09,21,16,18,16.70
2010,09,21,16,19,16.70
2010,09,21,16,20,16.70
2010,09,21,16,21,16.70
2010,09,21,16,22,16.70
2010,09,21,16,23,16.60
2010,09,21,16,24,16.60
2010,09,21,16,25,16.60
2010,09,21,16,26,16.70
2010,09,21,16,27,16.70
2010,09,21,16,28,16.70
2010,09,21,16,29,16.70
2010,09,21,16,30,16.70
2010,09,21,16,31,16.70
2010,09,21,16,32,16.70
2010,09,21,16,33,16.70
2010,09,21,16,34,16.60
2010,09,21,16,35,16.70
2010,09,21,16,36,16.70
2010,09,21,16,37,16.70
2010,09,21,16,38,16.60
2010,09,21,16,39,16.60
2010,09,21,16,40,16.50
2010,09,21,16,41,16.50
2010,09,21,16,42,16.50
2010,09,21,16,43,16.50
2010,09,21,16,44,16.40
2010,09,21,16,45,16.40
2010,09,21,16,46,16.40
2010,09,21,16,47,16.40
2010,09,21,16,48,16.40
2010,09,21,16,49,16.40
2010,09,21,16,50,16.40
2010,09,21,16,51,16.40
2010,09,21,16,52,16.40
2010,09,21,16,53,16.40
2010,09,21,16,54,16.40
2010,09,21,16,55,16.40
2010,09,21,16,56,16.40
2010,09,21,16,57,16.50
2010,09,21,16,58,16.50
2010,09,21,16,59,16.60
2010,09,21,17,00,16.60
2010,09,21,17,01,16.60
2010,09,21,17,02,16.70
2010,09,21,17,03,16.70
2010,09,21,17,04,16.70
2010,09,21,17,05,16.60
2010,09,21,17,06,16.60
2010,09,21,17,07,16.60
2010,09,21,17,08,16.60
2010,09,21,17,09,16.60
2010,09,21,17,10,16.60
2010,09,21,17,11,16.50
2010,09,21,17,12,16.50
2010,09,21,17,13,16.50
2010,09,21,17,14,16.50
2010,09,21,17,15,16.40
2010,09,21,17,16,16.40
2010,09,21,17,17,16.40
2010,09,21,17,18,16.40
2010,09,21,17,19,16.40
2010,09,21,17,20,16.30
2010,09,21,17,21,16.30
2010,09,21,17,22,16.30
2010,09,21,17,23,16.20
2010,09,21,17,24,16.20
2010,09,21,17,25,16.20
2010,09,21,17,26,16.20
2010,09,21,17,27,16.20
2010,09,21,17,28,16.20
2010,09,21,17,29,16.20
2010,09,21,17,30,16.20
2010,09,21,17,31,16.20
2010,09,21,17,32,16.20
2010,09,21,17,33,16.20
2010,09,21,17,34,16.10
2010,09,21,17,35,16.10
2010,09,21,17,36,16.10
2010,09,21,17,37,16.10
2010,09,21,17,38,16.00